Year,Month,Day,Hour,Minute,Value (Times are PST for insolation in W/m^2)
2008,09,07,00,00,0.00
2008,09,07,00,01,0.00
2008,09,07,00,02,0.00
2008,09,07,00,03,0.00
2008,09,07,00,04,0.00
2008,09,07,00,05,0.00
2008,09,07,00,06,0.00
2008,09,07,00,07,0.00
2008,09,07,00,08,0.00
2008,09,07,00,09,0.00
2008,09,07,00,10,0.00
2008,09,07,00,11,0.00
2008,09,07,00,12,0.00
2008,09,07,00,13,0.00
2008,09,07,00,14,0.00
2008,09,07,00,15,0.00
2008,09,07,00,16,0.00
2008,09,07,00,17,0.00
2008,09,07,00,18,0.00
2008,09,07,00,19,0.00
2008,09,07,00,20,0.00
2008,09,07,00,21,0.00
2008,09,07,00,22,0.00
2008,09,07,00,23,0.00
2008,09,07,00,24,0.00
2008,09,07,00,25,0.00
2008,09,07,00,26,0.00
2008,09,07,00,27,0.00
2008,09,07,00,28,0.00
2008,09,07,00,29,0.00
2008,09,07,00,30,0.00
2008,09,07,00,31,0.00
2008,09,07,00,32,0.00
2008,09,07,00,33,0.00
2008,09,07,00,34,0.00
2008,09,07,00,35,0.00
2008,09,07,00,36,0.00
2008,09,07,00,37,0.00
2008,09,07,00,38,0.00
2008,09,07,00,39,0.00
2008,09,07,00,40,0.00
2008,09,07,00,41,0.00
2008,09,07,00,42,0.00
2008,09,07,00,43,0.00
2008,09,07,00,44,0.00
2008,09,07,00,45,0.00
2008,09,07,00,46,0.00
2008,09,07,00,47,0.00
2008,09,07,00,48,0.00
2008,09,07,00,49,0.00
2008,09,07,00,50,0.00
2008,09,07,00,51,0.00
2008,09,07,00,52,0.00
2008,09,07,00,53,0.00
2008,09,07,00,54,0.00
2008,09,07,00,55,0.00
2008,09,07,00,56,0.00
2008,09,07,00,57,0.00
2008,09,07,00,58,0.00
2008,09,07,00,59,0.00
2008,09,07,01,00,0.00
2008,09,07,01,01,0.00
2008,09,07,01,02,0.00
2008,09,07,01,03,0.00
2008,09,07,01,04,0.00
2008,09,07,01,05,0.00
2008,09,07,01,06,0.00
2008,09,07,01,07,0.00
2008,09,07,01,08,0.00
2008,09,07,01,09,0.00
2008,09,07,01,10,0.00
2008,09,07,01,11,0.00
2008,09,07,01,12,0.00
2008,09,07,01,13,0.00
2008,09,07,01,14,0.00
2008,09,07,01,15,0.00
2008,09,07,01,16,0.00
2008,09,07,01,17,0.00
2008,09,07,01,18,0.00
2008,09,07,01,19,0.00
2008,09,07,01,20,0.00
2008,09,07,01,21,0.00
2008,09,07,01,22,0.00
2008,09,07,01,23,0.00
2008,09,07,01,24,0.00
2008,09,07,01,25,0.00
2008,09,07,01,26,0.00
2008,09,07,01,27,0.00
2008,09,07,01,28,0.00
2008,09,07,01,29,0.00
2008,09,07,01,30,0.00
2008,09,07,01,31,0.00
2008,09,07,01,32,0.00
2008,09,07,01,33,0.00
2008,09,07,01,34,0.00
2008,09,07,01,35,0.00
2008,09,07,01,36,0.00
2008,09,07,01,37,0.00
2008,09,07,01,38,0.00
2008,09,07,01,39,0.00
2008,09,07,01,40,0.00
2008,09,07,01,41,0.00
2008,09,07,01,42,0.00
2008,09,07,01,43,0.00
2008,09,07,01,44,0.00
2008,09,07,01,45,0.00
2008,09,07,01,46,0.00
2008,09,07,01,47,0.00
2008,09,07,01,48,0.00
2008,09,07,01,49,0.00
2008,09,07,01,50,0.00
2008,09,07,01,51,0.00
2008,09,07,01,52,0.00
2008,09,07,01,53,0.00
2008,09,07,01,54,0.00
2008,09,07,01,55,0.00
2008,09,07,01,56,0.00
2008,09,07,01,57,0.00
2008,09,07,01,58,0.00
2008,09,07,01,59,0.00
2008,09,07,02,00,0.00
2008,09,07,02,01,0.00
2008,09,07,02,02,0.00
2008,09,07,02,03,0.00
2008,09,07,02,04,0.00
2008,09,07,02,05,0.00
2008,09,07,02,06,0.00
2008,09,07,02,07,0.00
2008,09,07,02,08,0.00
2008,09,07,02,09,0.00
2008,09,07,02,10,0.00
2008,09,07,02,11,0.00
2008,09,07,02,12,0.00
2008,09,07,02,13,0.00
2008,09,07,02,14,0.00
2008,09,07,02,15,0.00
2008,09,07,02,16,0.00
2008,09,07,02,17,0.00
2008,09,07,02,18,0.00
2008,09,07,02,19,0.00
2008,09,07,02,20,0.00
2008,09,07,02,21,0.00
2008,09,07,02,22,0.00
2008,09,07,02,23,0.00
2008,09,07,02,24,0.00
2008,09,07,02,25,0.00
2008,09,07,02,26,0.00
2008,09,07,02,27,0.00
2008,09,07,02,28,0.00
2008,09,07,02,29,0.00
2008,09,07,02,30,0.00
2008,09,07,02,31,0.00
2008,09,07,02,32,0.00
2008,09,07,02,33,0.00
2008,09,07,02,34,0.00
2008,09,07,02,35,0.00
2008,09,07,02,36,0.00
2008,09,07,02,37,0.00
2008,09,07,02,38,0.00
2008,09,07,02,39,0.00
2008,09,07,02,40,0.00
2008,09,07,02,41,0.00
2008,09,07,02,42,0.00
2008,09,07,02,43,0.00
2008,09,07,02,44,0.00
2008,09,07,02,45,0.00
2008,09,07,02,46,0.00
2008,09,07,02,47,0.00
2008,09,07,02,48,0.00
2008,09,07,02,49,0.00
2008,09,07,02,50,0.00
2008,09,07,02,51,0.00
2008,09,07,02,52,0.00
2008,09,07,02,53,0.00
2008,09,07,02,54,0.00
2008,09,07,02,55,0.00
2008,09,07,02,56,0.00
2008,09,07,02,57,0.00
2008,09,07,02,58,0.00
2008,09,07,02,59,0.00
2008,09,07,03,00,0.00
2008,09,07,03,01,0.00
2008,09,07,03,02,0.00
2008,09,07,03,03,0.00
2008,09,07,03,04,0.00
2008,09,07,03,05,0.00
2008,09,07,03,06,0.00
2008,09,07,03,07,0.00
2008,09,07,03,08,0.00
2008,09,07,03,09,0.00
2008,09,07,03,10,0.00
2008,09,07,03,11,0.00
2008,09,07,03,12,0.00
2008,09,07,03,13,0.00
2008,09,07,03,14,0.00
2008,09,07,03,15,0.00
2008,09,07,03,16,0.00
2008,09,07,03,17,0.00
2008,09,07,03,18,0.00
2008,09,07,03,19,0.00
2008,09,07,03,20,0.00
2008,09,07,03,21,0.00
2008,09,07,03,22,0.00
2008,09,07,03,23,0.00
2008,09,07,03,24,0.00
2008,09,07,03,25,0.00
2008,09,07,03,26,0.00
2008,09,07,03,27,0.00
2008,09,07,03,28,0.00
2008,09,07,03,29,0.00
2008,09,07,03,30,0.00
2008,09,07,03,31,0.00
2008,09,07,03,32,0.00
2008,09,07,03,33,0.00
2008,09,07,03,34,0.00
2008,09,07,03,35,0.00
2008,09,07,03,36,0.00
2008,09,07,03,37,0.00
2008,09,07,03,38,0.00
2008,09,07,03,39,0.00
2008,09,07,03,40,0.00
2008,09,07,03,41,0.00
2008,09,07,03,42,0.00
2008,09,07,03,43,0.00
2008,09,07,03,44,0.00
2008,09,07,03,45,0.00
2008,09,07,03,46,0.00
2008,09,07,03,47,0.00
2008,09,07,03,48,0.00
2008,09,07,03,49,0.00
2008,09,07,03,50,0.00
2008,09,07,03,51,0.00
2008,09,07,03,52,0.00
2008,09,07,03,53,0.00
2008,09,07,03,54,0.00
2008,09,07,03,55,0.00
2008,09,07,03,56,0.00
2008,09,07,03,57,0.00
2008,09,07,03,58,0.00
2008,09,07,03,59,0.00
2008,09,07,04,00,0.00
2008,09,07,04,01,0.00
2008,09,07,04,02,0.00
2008,09,07,04,03,0.00
2008,09,07,04,04,0.00
2008,09,07,04,05,0.00
2008,09,07,04,06,0.00
2008,09,07,04,07,0.00
2008,09,07,04,08,0.00
2008,09,07,04,09,0.00
2008,09,07,04,10,0.00
2008,09,07,04,11,0.00
2008,09,07,04,12,0.00
2008,09,07,04,13,0.00
2008,09,07,04,14,0.00
2008,09,07,04,15,0.00
2008,09,07,04,16,0.00
2008,09,07,04,17,0.00
2008,09,07,04,18,0.00
2008,09,07,04,19,0.00
2008,09,07,04,20,0.00
2008,09,07,04,21,0.00
2008,09,07,04,22,0.00
2008,09,07,04,23,0.00
2008,09,07,04,24,0.00
2008,09,07,04,25,0.00
2008,09,07,04,26,0.00
2008,09,07,04,27,0.00
2008,09,07,04,28,0.00
2008,09,07,04,29,0.00
2008,09,07,04,30,0.00
2008,09,07,04,31,0.00
2008,09,07,04,32,0.00
2008,09,07,04,33,0.00
2008,09,07,04,34,0.00
2008,09,07,04,35,0.00
2008,09,07,04,36,0.00
2008,09,07,04,37,0.00
2008,09,07,04,38,0.00
2008,09,07,04,39,0.00
2008,09,07,04,40,0.00
2008,09,07,04,41,0.00
2008,09,07,04,42,0.00
2008,09,07,04,43,0.00
2008,09,07,04,44,0.00
2008,09,07,04,45,0.00
2008,09,07,04,46,0.00
2008,09,07,04,47,0.00
2008,09,07,04,48,0.00
2008,09,07,04,49,0.00
2008,09,07,04,50,0.00
2008,09,07,04,51,0.00
2008,09,07,04,52,0.00
2008,09,07,04,53,0.00
2008,09,07,04,54,0.00
2008,09,07,04,55,0.00
2008,09,07,04,56,0.00
2008,09,07,04,57,0.00
2008,09,07,04,58,0.00
2008,09,07,04,59,0.00
2008,09,07,05,00,0.00
2008,09,07,05,01,0.00
2008,09,07,05,02,0.00
2008,09,07,05,03,0.00
2008,09,07,05,04,0.00
2008,09,07,05,05,0.00
2008,09,07,05,06,0.00
2008,09,07,05,07,0.00
2008,09,07,05,08,0.00
2008,09,07,05,09,0.00
2008,09,07,05,10,0.00
2008,09,07,05,11,0.00
2008,09,07,05,12,0.00
2008,09,07,05,13,0.00
2008,09,07,05,14,0.00
2008,09,07,05,15,0.00
2008,09,07,05,16,0.00
2008,09,07,05,17,0.00
2008,09,07,05,18,0.00
2008,09,07,05,19,0.00
2008,09,07,05,20,0.00
2008,09,07,05,21,0.00
2008,09,07,05,22,0.00
2008,09,07,05,23,0.00
2008,09,07,05,24,0.00
2008,09,07,05,25,0.00
2008,09,07,05,26,0.00
2008,09,07,05,27,0.00
2008,09,07,05,28,0.00
2008,09,07,05,29,0.00
2008,09,07,05,30,0.00
2008,09,07,05,31,0.00
2008,09,07,05,32,0.00
2008,09,07,05,33,0.00
2008,09,07,05,34,0.00
2008,09,07,05,35,0.00
2008,09,07,05,36,0.00
2008,09,07,05,37,0.00
2008,09,07,05,38,0.00
2008,09,07,05,39,0.00
2008,09,07,05,40,0.00
2008,09,07,05,41,0.00
2008,09,07,05,42,0.00
2008,09,07,05,43,0.00
2008,09,07,05,44,0.00
2008,09,07,05,45,0.00
2008,09,07,05,46,0.00
2008,09,07,05,47,0.00
2008,09,07,05,48,0.00
2008,09,07,05,49,0.00
2008,09,07,05,50,0.00
2008,09,07,05,51,0.00
2008,09,07,05,52,0.00
2008,09,07,05,53,0.00
2008,09,07,05,54,0.00
2008,09,07,05,55,0.00
2008,09,07,05,56,0.00
2008,09,07,05,57,0.00
2008,09,07,05,58,0.00
2008,09,07,05,59,0.00
2008,09,07,06,00,0.00
2008,09,07,06,01,0.00
2008,09,07,06,02,0.00
2008,09,07,06,03,0.00
2008,09,07,06,04,0.00
2008,09,07,06,05,0.00
2008,09,07,06,06,0.00
2008,09,07,06,07,0.00
2008,09,07,06,08,0.00
2008,09,07,06,09,0.00
2008,09,07,06,10,0.00
2008,09,07,06,11,0.00
2008,09,07,06,12,0.00
2008,09,07,06,13,0.00
2008,09,07,06,14,0.00
2008,09,07,06,15,0.00
2008,09,07,06,16,0.00
2008,09,07,06,17,0.00
2008,09,07,06,18,0.00
2008,09,07,06,19,0.00
2008,09,07,06,20,0.00
2008,09,07,06,21,0.00
2008,09,07,06,22,0.00
2008,09,07,06,23,0.00
2008,09,07,06,24,0.00
2008,09,07,06,25,0.00
2008,09,07,06,26,0.00
2008,09,07,06,27,0.00
2008,09,07,06,28,0.00
2008,09,07,06,29,0.00
2008,09,07,06,30,0.00
2008,09,07,06,31,0.00
2008,09,07,06,32,0.00
2008,09,07,06,33,0.00
2008,09,07,06,34,0.00
2008,09,07,06,35,0.00
2008,09,07,06,36,0.00
2008,09,07,06,37,0.00
2008,09,07,06,38,0.00
2008,09,07,06,39,0.00
2008,09,07,06,40,0.00
2008,09,07,06,41,0.00
2008,09,07,06,42,0.00
2008,09,07,06,43,0.00
2008,09,07,06,44,0.00
2008,09,07,06,45,0.00
2008,09,07,06,46,0.00
2008,09,07,06,47,0.00
2008,09,07,06,48,0.00
2008,09,07,06,49,0.00
2008,09,07,06,50,0.00
2008,09,07,06,51,4.20
2008,09,07,06,52,5.00
2008,09,07,06,53,5.00
2008,09,07,06,54,5.00
2008,09,07,06,55,5.00
2008,09,07,06,56,5.00
2008,09,07,06,57,5.00
2008,09,07,06,58,5.00
2008,09,07,06,59,5.70
2008,09,07,07,00,7.00
2008,09,07,07,01,7.00
2008,09,07,07,02,7.00
2008,09,07,07,03,7.00
2008,09,07,07,04,7.00
2008,09,07,07,05,7.00
2008,09,07,07,06,7.00
2008,09,07,07,07,8.30
2008,09,07,07,08,9.00
2008,09,07,07,09,9.00
2008,09,07,07,10,9.00
2008,09,07,07,11,9.00
2008,09,07,07,12,9.00
2008,09,07,07,13,9.00
2008,09,07,07,14,9.00
2008,09,07,07,15,9.00
2008,09,07,07,16,9.00
2008,09,07,07,17,9.80
2008,09,07,07,18,11.00
2008,09,07,07,19,11.00
2008,09,07,07,20,11.00
2008,09,07,07,21,11.00
2008,09,07,07,22,11.00
2008,09,07,07,23,11.00
2008,09,07,07,24,11.00
2008,09,07,07,25,11.70
2008,09,07,07,26,12.00
2008,09,07,07,27,14.20
2008,09,07,07,28,16.50
2008,09,07,07,29,18.00
2008,09,07,07,30,18.00
2008,09,07,07,31,16.60
2008,09,07,07,32,16.00
2008,09,07,07,33,16.30
2008,09,07,07,34,18.30
2008,09,07,07,35,19.00
2008,09,07,07,36,18.40
2008,09,07,07,37,18.00
2008,09,07,07,38,18.00
2008,09,07,07,39,18.00
2008,09,07,07,40,18.30
2008,09,07,07,41,19.00
2008,09,07,07,42,19.00
2008,09,07,07,43,19.00
2008,09,07,07,44,18.00
2008,09,07,07,45,16.40
2008,09,07,07,46,17.40
2008,09,07,07,47,17.00
2008,09,07,07,48,18.60
2008,09,07,07,49,19.00
2008,09,07,07,50,19.00
2008,09,07,07,51,19.00
2008,09,07,07,52,17.90
2008,09,07,07,53,16.00
2008,09,07,07,54,16.00
2008,09,07,07,55,16.00
2008,09,07,07,56,14.10
2008,09,07,07,57,14.00
2008,09,07,07,58,14.00
2008,09,07,07,59,15.10
2008,09,07,08,00,16.00
2008,09,07,08,01,16.00
2008,09,07,08,02,16.00
2008,09,07,08,03,16.00
2008,09,07,08,04,16.00
2008,09,07,08,05,16.00
2008,09,07,08,06,16.00
2008,09,07,08,07,16.00
2008,09,07,08,08,16.00
2008,09,07,08,09,16.00
2008,09,07,08,10,16.00
2008,09,07,08,11,16.00
2008,09,07,08,12,16.00
2008,09,07,08,13,16.00
2008,09,07,08,14,16.30
2008,09,07,08,15,18.00
2008,09,07,08,16,18.00
2008,09,07,08,17,18.00
2008,09,07,08,18,18.00
2008,09,07,08,19,18.00
2008,09,07,08,20,18.00
2008,09,07,08,21,18.00
2008,09,07,08,22,18.00
2008,09,07,08,23,18.60
2008,09,07,08,24,19.00
2008,09,07,08,25,19.00
2008,09,07,08,26,19.00
2008,09,07,08,27,19.00
2008,09,07,08,28,19.00
2008,09,07,08,29,19.00
2008,09,07,08,30,19.00
2008,09,07,08,31,19.20
2008,09,07,08,32,21.00
2008,09,07,08,33,21.00
2008,09,07,08,34,21.00
2008,09,07,08,35,21.00
2008,09,07,08,36,21.00
2008,09,07,08,37,21.00
2008,09,07,08,38,21.00
2008,09,07,08,39,21.00
2008,09,07,08,40,22.10
2008,09,07,08,41,23.00
2008,09,07,08,42,23.00
2008,09,07,08,43,23.00
2008,09,07,08,44,23.00
2008,09,07,08,45,23.00
2008,09,07,08,46,23.00
2008,09,07,08,47,24.40
2008,09,07,08,48,25.00
2008,09,07,08,49,25.00
2008,09,07,08,50,25.00
2008,09,07,08,51,25.00
2008,09,07,08,52,25.50
2008,09,07,08,53,26.00
2008,09,07,08,54,26.00
2008,09,07,08,55,26.00
2008,09,07,08,56,26.00
2008,09,07,08,57,26.00
2008,09,07,08,58,26.00
2008,09,07,08,59,27.50
2008,09,07,09,00,28.00
2008,09,07,09,01,28.00
2008,09,07,09,02,28.00
2008,09,07,09,03,28.00
2008,09,07,09,04,29.20
2008,09,07,09,05,30.00
2008,09,07,09,06,30.00
2008,09,07,09,07,30.00
2008,09,07,09,08,30.00
2008,09,07,09,09,30.90
2008,09,07,09,10,32.00
2008,09,07,09,11,32.00
2008,09,07,09,12,32.00
2008,09,07,09,13,32.00
2008,09,07,09,14,32.00
2008,09,07,09,15,32.00
2008,09,07,09,16,32.00
2008,09,07,09,17,32.80
2008,09,07,09,18,33.00
2008,09,07,09,19,33.00
2008,09,07,09,20,33.00
2008,09,07,09,21,33.00
2008,09,07,09,22,33.00
2008,09,07,09,23,33.00
2008,09,07,09,24,34.90
2008,09,07,09,25,35.00
2008,09,07,09,26,35.00
2008,09,07,09,27,35.00
2008,09,07,09,28,35.00
2008,09,07,09,29,39.20
2008,09,07,09,30,41.50
2008,09,07,09,31,49.80
2008,09,07,09,32,38.70
2008,09,07,09,33,37.00
2008,09,07,09,34,37.00
2008,09,07,09,35,37.00
2008,09,07,09,36,37.00
2008,09,07,09,37,37.60
2008,09,07,09,38,39.00
2008,09,07,09,39,39.60
2008,09,07,09,40,41.50
2008,09,07,09,41,65.90
2008,09,07,09,42,67.90
2008,09,07,09,43,45.30
2008,09,07,09,44,44.00
2008,09,07,09,45,42.90
2008,09,07,09,46,42.00
2008,09,07,09,47,40.40
2008,09,07,09,48,44.30
2008,09,07,09,49,63.80
2008,09,07,09,50,86.10
2008,09,07,09,51,59.00
2008,09,07,09,52,52.80
2008,09,07,09,53,52.70
2008,09,07,09,54,46.60
2008,09,07,09,55,47.20
2008,09,07,09,56,43.00
2008,09,07,09,57,42.00
2008,09,07,09,58,42.00
2008,09,07,09,59,42.00
2008,09,07,10,00,42.00
2008,09,07,10,01,42.00
2008,09,07,10,02,42.00
2008,09,07,10,03,42.00
2008,09,07,10,04,43.70
2008,09,07,10,05,44.00
2008,09,07,10,06,44.00
2008,09,07,10,07,44.00
2008,09,07,10,08,44.00
2008,09,07,10,09,44.00
2008,09,07,10,10,44.00
2008,09,07,10,11,44.00
2008,09,07,10,12,44.50
2008,09,07,10,13,46.00
2008,09,07,10,14,46.00
2008,09,07,10,15,46.00
2008,09,07,10,16,46.00
2008,09,07,10,17,46.00
2008,09,07,10,18,46.00
2008,09,07,10,19,46.40
2008,09,07,10,20,47.00
2008,09,07,10,21,47.00
2008,09,07,10,22,47.00
2008,09,07,10,23,48.70
2008,09,07,10,24,47.00
2008,09,07,10,25,47.00
2008,09,07,10,26,47.00
2008,09,07,10,27,47.00
2008,09,07,10,28,47.10
2008,09,07,10,29,51.20
2008,09,07,10,30,56.40
2008,09,07,10,31,51.20
2008,09,07,10,32,64.00
2008,09,07,10,33,61.20
2008,09,07,10,34,85.70
2008,09,07,10,35,153.90
2008,09,07,10,36,149.50
2008,09,07,10,37,160.70
2008,09,07,10,38,122.10
2008,09,07,10,39,88.80
2008,09,07,10,40,121.90
2008,09,07,10,41,190.00
2008,09,07,10,42,253.40
2008,09,07,10,43,408.00
2008,09,07,10,44,454.00
2008,09,07,10,45,581.20
2008,09,07,10,46,615.10
2008,09,07,10,47,617.00
2008,09,07,10,48,619.00
2008,09,07,10,49,622.00
2008,09,07,10,50,617.10
2008,09,07,10,51,615.00
2008,09,07,10,52,329.40
2008,09,07,10,53,327.80
2008,09,07,10,54,316.00
2008,09,07,10,55,316.00
2008,09,07,10,56,316.00
2008,09,07,10,57,316.00
2008,09,07,10,58,285.50
2008,09,07,10,59,100.10
2008,09,07,11,00,66.60
2008,09,07,11,01,60.80
2008,09,07,11,02,62.20
2008,09,07,11,03,60.30
2008,09,07,11,04,61.20
2008,09,07,11,05,60.70
2008,09,07,11,06,63.80
2008,09,07,11,07,58.50
2008,09,07,11,08,58.00
2008,09,07,11,09,58.00
2008,09,07,11,10,58.00
2008,09,07,11,11,58.00
2008,09,07,11,12,58.90
2008,09,07,11,13,58.80
2008,09,07,11,14,58.00
2008,09,07,11,15,60.00
2008,09,07,11,16,62.20
2008,09,07,11,17,76.70
2008,09,07,11,18,102.00
2008,09,07,11,19,102.00
2008,09,07,11,20,102.00
2008,09,07,11,21,160.50
2008,09,07,11,22,689.30
2008,09,07,11,23,698.00
2008,09,07,11,24,699.00
2008,09,07,11,25,702.10
2008,09,07,11,26,651.60
2008,09,07,11,27,600.10
2008,09,07,11,28,223.00
2008,09,07,11,29,223.00
2008,09,07,11,30,223.00
2008,09,07,11,31,223.00
2008,09,07,11,32,223.00
2008,09,07,11,33,85.50
2008,09,07,11,34,93.40
2008,09,07,11,35,106.40
2008,09,07,11,36,71.20
2008,09,07,11,37,69.00
2008,09,07,11,38,69.00
2008,09,07,11,39,65.30
2008,09,07,11,40,67.00
2008,09,07,11,41,67.00
2008,09,07,11,42,101.70
2008,09,07,11,43,195.20
2008,09,07,11,44,218.00
2008,09,07,11,45,218.00
2008,09,07,11,46,375.20
2008,09,07,11,47,743.30
2008,09,07,11,48,744.40
2008,09,07,11,49,746.20
2008,09,07,11,50,747.00
2008,09,07,11,51,747.40
2008,09,07,11,52,749.70
2008,09,07,11,53,751.50
2008,09,07,11,54,752.00
2008,09,07,11,55,753.60
2008,09,07,11,56,754.10
2008,09,07,11,57,756.40
2008,09,07,11,58,758.00
2008,09,07,11,59,758.50
2008,09,07,12,00,759.00
2008,09,07,12,01,760.50
2008,09,07,12,02,761.20
2008,09,07,12,03,765.00
2008,09,07,12,04,765.40
2008,09,07,12,05,766.00
2008,09,07,12,06,767.40
2008,09,07,12,07,769.60
2008,09,07,12,08,770.20
2008,09,07,12,09,772.80
2008,09,07,12,10,774.20
2008,09,07,12,11,775.20
2008,09,07,12,12,779.10
2008,09,07,12,13,779.20
2008,09,07,12,14,780.00
2008,09,07,12,15,780.00
2008,09,07,12,16,780.80
2008,09,07,12,17,780.90
2008,09,07,12,18,782.80
2008,09,07,12,19,782.30
2008,09,07,12,20,784.00
2008,09,07,12,21,784.00
2008,09,07,12,22,784.00
2008,09,07,12,23,786.40
2008,09,07,12,24,788.00
2008,09,07,12,25,713.00
2008,09,07,12,26,624.20
2008,09,07,12,27,684.00
2008,09,07,12,28,555.50
2008,09,07,12,29,427.00
2008,09,07,12,30,427.00
2008,09,07,12,31,422.10
2008,09,07,12,32,410.00
2008,09,07,12,33,410.00
2008,09,07,12,34,250.50
2008,09,07,12,35,95.40
2008,09,07,12,36,116.80
2008,09,07,12,37,151.30
2008,09,07,12,38,135.00
2008,09,07,12,39,97.40
2008,09,07,12,40,81.10
2008,09,07,12,41,91.30
2008,09,07,12,42,103.20
2008,09,07,12,43,97.90
2008,09,07,12,44,94.50
2008,09,07,12,45,84.00
2008,09,07,12,46,83.50
2008,09,07,12,47,83.00
2008,09,07,12,48,85.50
2008,09,07,12,49,79.30
2008,09,07,12,50,79.00
2008,09,07,12,51,78.20
2008,09,07,12,52,77.00
2008,09,07,12,53,77.00
2008,09,07,12,54,77.00
2008,09,07,12,55,77.00
2008,09,07,12,56,77.00
2008,09,07,12,57,77.00
2008,09,07,12,58,77.00
2008,09,07,12,59,77.00
2008,09,07,13,00,77.00
2008,09,07,13,01,76.80
2008,09,07,13,02,76.00
2008,09,07,13,03,76.40
2008,09,07,13,04,77.00
2008,09,07,13,05,77.00
2008,09,07,13,06,77.00
2008,09,07,13,07,76.20
2008,09,07,13,08,77.60
2008,09,07,13,09,80.00
2008,09,07,13,10,98.70
2008,09,07,13,11,103.80
2008,09,07,13,12,95.90
2008,09,07,13,13,93.40
2008,09,07,13,14,101.70
2008,09,07,13,15,120.50
2008,09,07,13,16,133.50
2008,09,07,13,17,124.40
2008,09,07,13,18,127.50
2008,09,07,13,19,137.20
2008,09,07,13,20,158.00
2008,09,07,13,21,124.00
2008,09,07,13,22,114.10
2008,09,07,13,23,144.40
2008,09,07,13,24,188.00
2008,09,07,13,25,190.60
2008,09,07,13,26,172.90
2008,09,07,13,27,208.50
2008,09,07,13,28,234.80
2008,09,07,13,29,219.90
2008,09,07,13,30,218.00
2008,09,07,13,31,338.00
2008,09,07,13,32,698.00
2008,09,07,13,33,698.00
2008,09,07,13,34,273.10
2008,09,07,13,35,94.40
2008,09,07,13,36,157.80
2008,09,07,13,37,236.00
2008,09,07,13,38,236.00
2008,09,07,13,39,236.00
2008,09,07,13,40,662.80
2008,09,07,13,41,806.70
2008,09,07,13,42,807.00
2008,09,07,13,43,807.60
2008,09,07,13,44,809.00
2008,09,07,13,45,809.00
2008,09,07,13,46,809.00
2008,09,07,13,47,805.40
2008,09,07,13,48,807.00
2008,09,07,13,49,806.40
2008,09,07,13,50,805.00
2008,09,07,13,51,805.00
2008,09,07,13,52,805.00
2008,09,07,13,53,805.00
2008,09,07,13,54,804.60
2008,09,07,13,55,803.00
2008,09,07,13,56,803.00
2008,09,07,13,57,802.40
2008,09,07,13,58,802.80
2008,09,07,13,59,802.10
2008,09,07,14,00,801.60
2008,09,07,14,01,800.70
2008,09,07,14,02,801.00
2008,09,07,14,03,797.30
2008,09,07,14,04,796.00
2008,09,07,14,05,797.90
2008,09,07,14,06,797.40
2008,09,07,14,07,794.20
2008,09,07,14,08,794.10
2008,09,07,14,09,795.00
2008,09,07,14,10,795.80
2008,09,07,14,11,793.00
2008,09,07,14,12,793.00
2008,09,07,14,13,793.00
2008,09,07,14,14,791.80
2008,09,07,14,15,789.60
2008,09,07,14,16,789.00
2008,09,07,14,17,787.80
2008,09,07,14,18,786.50
2008,09,07,14,19,788.40
2008,09,07,14,20,787.30
2008,09,07,14,21,786.00
2008,09,07,14,22,787.70
2008,09,07,14,23,783.40
2008,09,07,14,24,780.00
2008,09,07,14,25,780.00
2008,09,07,14,26,782.30
2008,09,07,14,27,781.20
2008,09,07,14,28,780.00
2008,09,07,14,29,779.00
2008,09,07,14,30,779.00
2008,09,07,14,31,779.00
2008,09,07,14,32,779.00
2008,09,07,14,33,779.00
2008,09,07,14,34,775.60
2008,09,07,14,35,775.00
2008,09,07,14,36,775.00
2008,09,07,14,37,773.70
2008,09,07,14,38,772.00
2008,09,07,14,39,772.00
2008,09,07,14,40,771.90
2008,09,07,14,41,769.60
2008,09,07,14,42,767.20
2008,09,07,14,43,766.00
2008,09,07,14,44,766.00
2008,09,07,14,45,765.20
2008,09,07,14,46,763.10
2008,09,07,14,47,763.00
2008,09,07,14,48,762.30
2008,09,07,14,49,759.50
2008,09,07,14,50,758.00
2008,09,07,14,51,756.40
2008,09,07,14,52,753.90
2008,09,07,14,53,751.80
2008,09,07,14,54,750.30
2008,09,07,14,55,748.00
2008,09,07,14,56,744.90
2008,09,07,14,57,744.80
2008,09,07,14,58,741.60
2008,09,07,14,59,740.00
2008,09,07,15,00,739.20
2008,09,07,15,01,739.10
2008,09,07,15,02,740.00
2008,09,07,15,03,738.30
2008,09,07,15,04,737.80
2008,09,07,15,05,737.00
2008,09,07,15,06,735.30
2008,09,07,15,07,730.60
2008,09,07,15,08,730.50
2008,09,07,15,09,729.20
2008,09,07,15,10,725.70
2008,09,07,15,11,724.00
2008,09,07,15,12,723.10
2008,09,07,15,13,722.00
2008,09,07,15,14,719.80
2008,09,07,15,15,717.10
2008,09,07,15,16,715.00
2008,09,07,15,17,714.10
2008,09,07,15,18,712.00
2008,09,07,15,19,709.50
2008,09,07,15,20,707.20
2008,09,07,15,21,707.00
2008,09,07,15,22,706.50
2008,09,07,15,23,703.60
2008,09,07,15,24,702.00
2008,09,07,15,25,701.10
2008,09,07,15,26,698.50
2008,09,07,15,27,695.90
2008,09,07,15,28,693.00
2008,09,07,15,29,692.20
2008,09,07,15,30,692.10
2008,09,07,15,31,691.70
2008,09,07,15,32,687.60
2008,09,07,15,33,685.90
2008,09,07,15,34,683.50
2008,09,07,15,35,683.60
2008,09,07,15,36,684.80
2008,09,07,15,37,682.60
2008,09,07,15,38,679.50
2008,09,07,15,39,679.20
2008,09,07,15,40,678.20
2008,09,07,15,41,664.60
2008,09,07,15,42,611.30
2008,09,07,15,43,533.90
2008,09,07,15,44,515.00
2008,09,07,15,45,571.80
2008,09,07,15,46,557.50
2008,09,07,15,47,603.00
2008,09,07,15,48,538.10
2008,09,07,15,49,535.40
2008,09,07,15,50,519.60
2008,09,07,15,51,541.20
2008,09,07,15,52,701.00
2008,09,07,15,53,695.60
2008,09,07,15,54,685.80
2008,09,07,15,55,685.50
2008,09,07,15,56,680.60
2008,09,07,15,57,672.70
2008,09,07,15,58,668.50
2008,09,07,15,59,664.00
2008,09,07,16,00,656.40
2008,09,07,16,01,648.20
2008,09,07,16,02,641.20
2008,09,07,16,03,621.00
2008,09,07,16,04,621.00
2008,09,07,16,05,560.00
2008,09,07,16,06,499.00
2008,09,07,16,07,306.40
2008,09,07,16,08,255.00
2008,09,07,16,09,327.80
2008,09,07,16,10,601.00
2008,09,07,16,11,601.00
2008,09,07,16,12,256.80
2008,09,07,16,13,97.20
2008,09,07,16,14,138.60
2008,09,07,16,15,163.20
2008,09,07,16,16,134.80
2008,09,07,16,17,106.40
2008,09,07,16,18,101.90
2008,09,07,16,19,109.90
2008,09,07,16,20,163.20
2008,09,07,16,21,228.80
2008,09,07,16,22,199.80
2008,09,07,16,23,147.60
2008,09,07,16,24,125.70
2008,09,07,16,25,122.70
2008,09,07,16,26,116.90
2008,09,07,16,27,109.90
2008,09,07,16,28,109.80
2008,09,07,16,29,113.40
2008,09,07,16,30,118.90
2008,09,07,16,31,189.60
2008,09,07,16,32,280.80
2008,09,07,16,33,282.50
2008,09,07,16,34,219.40
2008,09,07,16,35,142.60
2008,09,07,16,36,107.50
2008,09,07,16,37,99.20
2008,09,07,16,38,81.00
2008,09,07,16,39,81.00
2008,09,07,16,40,81.00
2008,09,07,16,41,82.30
2008,09,07,16,42,83.80
2008,09,07,16,43,89.80
2008,09,07,16,44,96.60
2008,09,07,16,45,111.00
2008,09,07,16,46,139.00
2008,09,07,16,47,145.60
2008,09,07,16,48,126.90
2008,09,07,16,49,209.70
2008,09,07,16,50,195.40
2008,09,07,16,51,184.00
2008,09,07,16,52,246.40
2008,09,07,16,53,274.60
2008,09,07,16,54,233.60
2008,09,07,16,55,180.50
2008,09,07,16,56,165.70
2008,09,07,16,57,145.20
2008,09,07,16,58,134.90
2008,09,07,16,59,131.40
2008,09,07,17,00,133.60
2008,09,07,17,01,123.80
2008,09,07,17,02,125.00
2008,09,07,17,03,124.20
2008,09,07,17,04,123.00
2008,09,07,17,05,123.00
2008,09,07,17,06,127.20
2008,09,07,17,07,137.80
2008,09,07,17,08,166.00
2008,09,07,17,09,206.20
2008,09,07,17,10,188.90
2008,09,07,17,11,181.00
2008,09,07,17,12,176.40
2008,09,07,17,13,209.00
2008,09,07,17,14,266.00
2008,09,07,17,15,424.70
2008,09,07,17,16,462.20
2008,09,07,17,17,468.70
2008,09,07,17,18,462.70
2008,09,07,17,19,455.00
2008,09,07,17,20,445.50
2008,09,07,17,21,407.90
2008,09,07,17,22,402.60
2008,09,07,17,23,370.70